THOR ABLESTAR DEB, 420

Orbit data source: Space-Track

THOR ABLESTAR DEB, 420 is space debris in LEO originally from a launch on Thu, 29 Jun 1961 UTC launched from the Air Force Eastern Test Range (AFETR). Debris objects in space refer to the collection of defunct objects orbiting the Earth. Examples of debris include non-operational satellites, rocket bodies, and fragments generated from explosions, collisions, or faulty payload assembly.

Loading next visibility...
Identifier
420, 1961-015EV
Orbit
LEO
Country
Flag of USUS
Related business
Manufacturer
Unknown
Mission
Spacecraft
Bus & Motor
Unknown
Mass
Unknown
Launch date (UTC)
1961-06-29 (64 years ago)
Launch vehicle
Unknown
Launch site
Air Force Eastern Test Range (AFETR)
Object type
Payload
Rocket body
Debris
Shape & HBR
Unknown shape, 0.1 m
Radar Cross Section
Small (<0.1 m²)

Expand to show TLE details & history
Last TLE update: 4 days ago

TLE from 4 days ago
0 THOR ABLESTAR DEB
1 00420U 61015EV  25307.96918979  .00001025  00000-0  38636-3 0  9991
2 00420  66.8114 147.0846 0080982  13.6468 346.6795 14.33522523321296
Epoch: 2025-11-03T23:15Z
TLE epoch observation values (Epoch: 2025-11-03T23:15:37.997Z)
Latitude
-0.00007°
Longitude
114.71331°
Altitude
725.71 km
Speed
7.522 km/s
True Right ascension
09h 48m 20s
True Declination
0° 00' 00"
Sunlit
Object was in daylight at epoch
Visualization orbit readout
Latitude
Unknown
Longitude
Unknown
Altitude
Unknown
Speed
Unknown
Apparent Right ascension
Unknown
Apparent Declination
Unknown
Sunlit
N/A
Visualization observer readout
Local Sidereal Time
08:51:47
Azimuth
Unknown
Elevation
Unknown
Doppler factor
Unknown
Orbital elements
Apogee altitude
836.294 km
Perigee altitude
720.385 km
Semi-major axis
7,156.477 km
Eccentricity
0.0081
Inclination
66.8114°
RAAN
147.0846°
Arg. of periapsis
13.6468°
True anomaly
346.46357°
Mean anomaly
346.6795°
Eccentric anomaly
346.57175°
Mean motion
3.58504 °/min
Orbital period
100.42 mins
BSTAR
0.00038636
Loading maneuver chart data...
Computing Atmospheric mass density...

Documentation

Showing up to 5 results
|